Wind_Speed
4 8 11 11 13 16 19 23 25 24 22 19 18 18 18 20 22 24 26 27 28 30 31 32 34 35 36 37 38 39 40 41 41 42 43 43 43 44 44 44 45 45 45 45
1 4 8 9 13 16 17 21 25 26 25 24 22 20 20 20 22 24 26 27 28 30 31 32 33 35 36 37 38 38 39 40 40 41 41 41 41 42 42 42 43 43 43 44
1 4 7 8 11 14 16 19 22 24 26 27 26 25 23 23 23 24 26 27 28 30 31 32 33 34 35 35 35 35 36 36 37 37 38 38 38 38 39 39 39 40 41 42
1 4 6 8 10 13 16 19 21 23 25 25 24 24 24 22 23 23 24 25 26 27 28 28 29 30 30 31 32 32 33 34 34 34 35 35 35 36 36 36 37 38 39 40
2 4 7 8 10 12 14 16 18 20 22 23 22 22 22 22 22 23 22 22 23 23 24 25 26 27 27 28 28 29 30 30 30 30 30 31 31 31 32 33 34 35 36 37
3 5 8 9 10 12 14 14 15 17 18 19 19 19 19 19 20 21 21 22 23 24 24 24 25 25 25 25 25 26 26 27 27 27 27 27 28 29 30 30 31 31 32 32
6 6 7 9 10 11 12 13 14 14 15 15 15 16 16 16 17 18 18 19 20 20 21 21 21 22 22 23 23 23 23 24 24 24 24 25 26 26 26 27 27 28 28 28
8 8 9 10 11 11 12 11 11 12 12 11 12 12 12 13 14 15 15 16 16 17 18 18 19 20 20 21 21 20 20 21 21 21 22 22 23 23 23 24 24 24 23 23
9 9 10 10 11 11 11 11 10 10 9 9 9 9 10 11 12 12 13 14 14 14 15 16 16 17 17 18 18 19 19 19 19 20 20 20 21 21 21 21 21 20 20 20
10 11 11 11 12 12 12 11 10 9 8 8 8 8 8 8 9 10 11 11 12 12 12 13 14 15 16 17 17 18 18 18 18 18 18 18 18 18 18 18 18 18 17 16
11 12 13 13 13 12 12 11 11 10 9 8 7 7 7 8 9 9 10 11 11 11 11 12 14 15 16 17 17 17 17 17 16 16 16 17 17 16 16 16 16 15 14 13
13 14 14 14 14 13 12 12 11 10 9 9 8 9 9 9 9 10 9 10 10 11 11 13 15 16 16 17 16 16 16 15 15 15 15 15 15 14 14 14 14 13 11 10
13 14 15 15 14 14 13 12 11 10 10 9 10 10 10 10 10 10 10 10 11 12 13 15 16 16 16 16 15 15 14 14 14 14 14 13 12 12 12 11 11 9 8 8
12 14 15 15 15 14 14 13 12 11 10 10 10 10 11 11 11 10 11 12 12 13 14 15 16 16 16 15 14 13 13 12 13 12 12 11 10 9 9 9 8 7 6 6
12 13 15 15 15 15 14 13 13 12 11 10 10 11 12 13 12 12 12 13 13 14 15 15 15 15 14 13 12 11 11 11 11 10 9 8 8 7 7 7 6 5 5 5
12 13 14 15 15 15 15 14 13 12 11 11 11 12 13 13 13 13 14 14 15 15 15 15 14 13 11 10 9 9 9 8 8 8 7 6 6 6 6 6 5 5 4 5
11 13 14 15 15 15 15 15 14 13 12 12 12 13 14 14 14 15 15 15 15 15 15 14 13 11 9 8 7 7 6 6 6 6 5 5 5 5 5 5 5 4 4 4
10 12 13 14 15 15 16 15 15 14 13 13 13 14 14 14 15 15 15 16 16 16 15 13 12 10 8 8 7 5 5 5 4 5 4 4 4 5 5 4 4 4 4 4
9 11 13 14 14 15 16 16 15 15 14 14 14 14 14 15 16 16 16 16 16 16 16 14 13 11 9 8 7 6 6 5 5 5 5 4 4 4 4 4 4 4 4 4
8 10 12 13 14 15 15 16 16 15 15 14 14 15 15 16 16 16 16 16 16 17 17 16 15 13 11 9 8 7 6 5 5 5 5 5 4 4 4 4 4 4 4 4
7 9 11 12 13 14 15 16 16 16 15 15 15 15 15 16 17 17 17 17 17 17 18 18 16 14 12 11 9 8 6 5 5 4 4 4 4 4 4 4 4 4 4 4
7 8 10 11 12 13 14 15 15 16 16 15 15 15 15 16 17 17 17 17 18 18 18 18 17 16 15 13 11 10 8 6 5 4 4 3 3 3 3 3 3 3 4 4
7 8 9 10 12 13 13 14 15 15 15 15 15 15 15 15 16 17 18 18 18 19 19 18 18 17 17 15 13 12 10 8 6 5 4 3 3 3 3 3 3 3 4 4
8 9 9 10 11 12 13 13 14 14 15 15 15 15 15 15 16 17 17 18 18 19 19 19 19 18 18 16 15 14 13 11 9 7 6 4 4 4 4 4 4 4 4 5
10 10 10 11 11 12 12 13 13 14 14 14 14 14 14 14 15 16 17 17 17 18 18 18 18 18 18 17 16 16 15 13 12 10 9 7 6 6 6 6 6 6 6 6
13 12 12 12 12 12 12 12 13 13 13 13 14 14 14 14 14 15 15 16 16 17 17 18 18 18 17 17 17 17 16 15 14 12 11 10 9 8 8 7 7 7 7 8
16 15 14 14 13 13 12 12 12 12 13 13 13 13 13 13 13 13 14 15 15 15 16 16 17 18 18 17 17 17 16 15 14 13 12 11 10 9 9 9 8 8 8 9
Wind_Direction
203 183 187 195 204 214 220 225 232 243 257 263 260 258 257 257 256 255 254 255 257 258 260 261 263 265 267 269 271 273 275 276 277 278 280 281 282 284 285 286 287 288 289 290
184 190 209 222 225 230 230 233 237 242 253 265 272 272 268 264 262 260 258 258 258 259 261 262 265 267 269 270 271 273 274 275 276 277 278 280 282 284 285 287 289 290 291 293
291 267 260 254 245 244 246 247 249 254 258 265 271 274 273 269 264 261 260 259 261 262 264 265 266 267 269 270 271 272 273 275 276 278 279 281 284 286 287 289 291 294 296 298
299 283 275 274 271 263 259 257 261 262 263 269 272 271 270 267 264 262 261 262 264 264 265 265 266 269 271 272 272 272 274 276 278 279 281 284 286 288 290 293 296 298 299 300
20 314 299 294 289 283 278 272 269 270 271 273 274 272 269 268 267 266 265 265 266 267 268 270 271 271 273 275 274 275 276 278 280 282 284 287 289 292 294 297 300 301 303 304
2 306 300 307 301 296 291 288 281 278 276 276 274 272 269 268 269 270 270 270 269 269 270 273 275 277 277 279 279 280 282 282 284 287 289 291 294 297 299 301 303 305 306 308
355 332 323 318 316 308 304 300 293 288 284 279 274 273 272 271 271 272 273 272 271 272 274 276 278 279 281 282 283 283 284 287 289 291 293 296 298 300 302 304 306 308 310 312
1 354 340 331 328 325 319 313 308 301 295 290 284 279 277 273 272 272 273 272 274 277 278 278 279 282 283 284 285 287 288 291 294 296 297 299 301 303 305 306 309 311 313 315
6 358 349 345 339 336 334 330 324 320 310 303 302 297 290 285 283 279 280 282 284 285 285 284 285 287 288 288 290 292 293 294 295 296 298 300 302 304 306 308 310 312 314 317
8 2 357 352 349 345 343 343 341 337 332 323 317 315 313 308 299 292 288 286 287 288 290 292 294 295 296 296 296 295 295 294 294 296 298 300 303 305 307 308 311 313 316 319
11 7 4 360 355 352 351 351 350 348 345 340 338 333 328 324 317 311 304 298 297 299 301 302 302 302 300 299 298 296 294 293 294 297 299 302 304 305 306 309 312 315 318 320
11 9 7 5 1 358 355 354 354 354 353 348 347 345 340 335 330 325 319 315 311 310 309 307 306 304 303 301 299 296 293 292 293 297 300 302 303 305 307 309 312 315 317 320
11 11 9 6 5 2 359 358 359 359 358 357 354 353 351 347 342 338 333 325 319 315 314 312 310 306 304 301 299 297 293 292 294 298 301 302 302 305 309 311 313 316 321 326
11 11 11 9 7 7 6 6 5 5 4 3 2 0 357 353 349 345 340 333 326 321 318 316 312 309 305 301 298 295 292 293 296 299 301 302 304 307 311 315 317 319 326 331
11 11 11 10 10 10 10 10 11 10 9 8 6 2 359 357 354 349 343 339 334 329 325 322 319 314 309 303 299 296 293 292 295 298 300 302 305 310 314 318 320 323 328 332
10 10 10 11 12 12 13 13 13 12 11 9 7 4 2 0 357 353 349 346 343 339 335 333 330 327 323 317 311 304 298 295 295 299 303 305 308 313 315 318 324 328 332 336
9 9 10 11 12 13 14 14 14 13 12 10 6 4 2 1 360 358 357 356 354 351 347 344 342 340 338 333 325 320 314 307 305 308 309 311 313 317 319 317 321 330 334 334
7 9 10 11 12 13 14 15 15 14 13 10 7 5 5 4 4 4 3 1 360 358 356 355 354 352 348 344 338 330 324 319 315 319 318 315 316 321 325 325 325 330 333 334
2 6 8 11 12 12 13 14 15 14 13 12 10 9 8 8 7 7 7 7 6 6 6 5 2 358 354 347 341 332 326 325 323 323 323 318 315 318 325 330 330 331 332 334
357 2 5 8 10 12 12 13 14 14 14 13 12 12 12 12 11 11 11 11 11 11 11 8 5 3 360 355 352 345 334 326 322 320 319 317 315 315 320 327 330 330 334 338
347 355 360 4 7 10 11 12 13 13 13 14 13 14 14 14 13 13 13 13 14 14 14 13 13 13 11 9 7 359 350 342 334 329 327 324 323 321 321 324 329 333 339 346
335 344 351 358 2 5 7 9 11 12 13 13 14 14 14 15 14 14 14 15 16 17 17 17 18 19 20 19 15 10 8 3 355 348 343 339 336 335 334 334 338 344 350 355
318 330 339 347 354 358 1 4 6 9 11 12 13 13 13 13 14 15 17 19 20 21 21 20 21 22 23 22 19 20 20 19 18 15 10 7 7 7 6 6 8 12 12 12
302 315 325 334 342 348 353 357 0 4 7 9 11 12 12 13 13 16 18 19 20 21 23 23 23 25 26 26 27 30 31 31 31 31 31 34 35 34 35 36 36 36 35 34
288 301 311 319 329 336 342 348 352 357 1 4 7 10 10 11 12 14 16 19 20 21 22 23 24 27 28 28 32 35 35 37 39 41 45 50 53 52 50 49 48 47 47 47
277 288 298 306 315 323 330 336 342 347 352 356 1 5 8 9 10 12 13 15 18 20 22 23 25 28 29 31 34 36 37 38 41 44 49 53 55 55 53 53 54 55 56 55
270 279 287 294 302 310 317 324 330 336 342 347 351 357 1 5 7 9 10 12 15 17 19 22 25 27 29 31 33 35 37 40 43 46 49 51 52 54 55 56 57 58 60 59
Height
5746 5748 5751 5753 5754 5756 5757 5757 5758 5757 5756 5755 5755 5757 5759 5761 5762 5764 5765 5766 5767 5768 5769 5769 5770 5770 5771 5771 5770 5770 5769 5769 5768 5767 5765 5764 5762 5760 5758 5756 5754 5751 5749 5746
5747 5748 5749 5750 5752 5752 5753 5754 5754 5754 5753 5750 5751 5752 5754 5755 5756 5757 5758 5759 5759 5760 5761 5761 5761 5762 5761 5761 5761 5760 5760 5759 5758 5757 5755 5754 5752 5750 5748 5746 5744 5741 5739 5735
5747 5748 5748 5749 5750 5750 5750 5750 5750 5750 5750 5747 5747 5748 5749 5750 5750 5751 5751 5752 5752 5752 5753 5753 5753 5753 5753 5752 5752 5751 5750 5750 5749 5748 5746 5745 5743 5741 5739 5737 5735 5732 5729 5725
5747 5748 5747 5749 5747 5747 5747 5746 5745 5744 5744 5742 5742 5743 5743 5743 5744 5744 5744 5745 5745 5745 5745 5745 5744 5744 5744 5744 5743 5743 5742 5741 5740 5739 5738 5736 5735 5733 5731 5728 5726 5723 5720 5716
5747 5747 5746 5745 5744 5744 5743 5742 5741 5740 5739 5738 5737 5738 5738 5738 5738 5738 5738 5738 5738 5738 5738 5737 5737 5737 5736 5736 5735 5735 5734 5733 5732 5731 5729 5728 5726 5724 5722 5720 5717 5714 5711 5707
5746 5746 5745 5745 5742 5741 5740 5738 5737 5735 5734 5733 5733 5733 5733 5733 5732 5732 5732 5732 5732 5732 5731 5731 5730 5730 5730 5729 5728 5727 5727 5726 5725 5723 5722 5721 5719 5717 5715 5712 5709 5706 5703 5699
5746 5745 5744 5742 5740 5739 5738 5737 5734 5732 5731 5730 5729 5729 5729 5728 5728 5727 5727 5727 5727 5726 5726 5725 5724 5724 5723 5723 5722 5721 5720 5719 5718 5717 5715 5714 5712 5710 5708 5705 5702 5700 5696 5693
5747 5745 5745 5741 5739 5738 5736 5733 5731 5729 5728 5726 5726 5725 5725 5724 5724 5723 5723 5723 5722 5721 5721 5720 5719 5719 5718 5717 5716 5715 5714 5713 5712 5711 5709 5708 5706 5704 5701 5699 5696 5693 5690 5687
5748 5747 5743 5740 5738 5736 5733 5731 5729 5727 5725 5724 5723 5722 5722 5721 5720 5720 5719 5719 5718 5717 5716 5716 5715 5714 5713 5712 5711 5710 5709 5707 5706 5705 5704 5702 5700 5698 5696 5694 5691 5688 5686 5683
5747 5745 5742 5740 5737 5735 5732 5730 5728 5726 5724 5723 5722 5721 5720 5719 5718 5717 5716 5715 5715 5714 5713 5712 5711 5709 5708 5707 5706 5705 5703 5702 5701 5700 5698 5697 5695 5693 5691 5689 5687 5684 5682 5679
5748 5745 5742 5740 5737 5734 5732 5729 5727 5725 5723 5722 5721 5720 5718 5717 5716 5715 5714 5713 5711 5710 5709 5708 5707 5705 5704 5702 5701 5700 5698 5697 5696 5695 5693 5692 5690 5689 5687 5685 5683 5681 5678 5676
5749 5746 5743 5740 5737 5734 5732 5729 5727 5725 5723 5722 5720 5719 5717 5716 5714 5713 5711 5710 5708 5707 5706 5704 5703 5701 5699 5697 5696 5694 5693 5692 5691 5690 5689 5688 5686 5685 5683 5681 5679 5677 5675 5674
5749 5746 5744 5741 5738 5735 5732 5730 5727 5725 5724 5722 5720 5718 5717 5715 5713 5711 5709 5708 5706 5704 5702 5701 5698 5696 5694 5693 5691 5689 5688 5688 5687 5686 5685 5684 5683 5681 5680 5678 5676 5675 5673 5672
5750 5747 5745 5741 5739 5735 5733 5730 5728 5726 5724 5722 5720 5718 5716 5714 5712 5710 5708 5706 5704 5701 5699 5697 5694 5692 5690 5688 5686 5685 5684 5684 5683 5682 5682 5681 5680 5679 5677 5676 5674 5673 5672 5670
5751 5748 5746 5743 5739 5736 5734 5731 5729 5726 5724 5723 5721 5719 5717 5714 5712 5709 5707 5704 5702 5699 5696 5693 5691 5688 5686 5684 5682 5681 5681 5680 5680 5679 5679 5678 5677 5676 5675 5674 5673 5672 5671 5670
5752 5749 5747 5744 5741 5738 5735 5732 5730 5727 5725 5723 5721 5719 5717 5714 5712 5709 5706 5703 5700 5697 5694 5690 5687 5684 5682 5681 5679 5678 5678 5677 5677 5677 5676 5676 5675 5675 5674 5673 5672 5671 5670 5669
5753 5750 5748 5745 5742 5739 5736 5733 5731 5728 5726 5724 5722 5720 5717 5714 5712 5709 5706 5702 5699 5696 5692 5688 5685 5683 5681 5679 5678 5677 5676 5676 5675 5675 5675 5674 5674 5673 5673 5672 5671 5670 5670 5669
5753 5751 5749 5746 5743 5740 5737 5734 5732 5729 5727 5725 5723 5720 5718 5715 5712 5709 5706 5702 5699 5695 5692 5688 5685 5683 5681 5679 5678 5677 5676 5675 5675 5674 5674 5673 5673 5672 5672 5671 5671 5670 5669 5668
5753 5752 5749 5747 5744 5742 5739 5736 5733 5730 5728 5726 5723 5721 5718 5716 5713 5710 5706 5703 5700 5696 5693 5689 5686 5683 5681 5679 5677 5676 5675 5675 5674 5674 5673 5673 5672 5672 5671 5671 5670 5669 5669 5668
5754 5752 5750 5748 5745 5743 5740 5737 5734 5732 5729 5727 5724 5722 5719 5717 5714 5710 5707 5704 5701 5697 5693 5690 5686 5683 5681 5679 5677 5676 5675 5674 5673 5673 5672 5672 5672 5671 5671 5670 5670 5669 5669 5668
5753 5752 5750 5748 5746 5744 5741 5738 5736 5733 5730 5728 5725 5723 5721 5718 5715 5712 5709 5706 5702 5698 5695 5691 5688 5684 5682 5679 5677 5676 5674 5673 5673 5672 5672 5672 5671 5671 5670 5670 5670 5669 5668 5668
5753 5752 5750 5749 5747 5744 5742 5739 5737 5734 5731 5729 5727 5724 5722 5719 5717 5714 5710 5707 5704 5700 5697 5693 5690 5686 5683 5680 5678 5676 5675 5673 5672 5672 5671 5671 5671 5671 5670 5670 5669 5669 5668 5668
5752 5751 5750 5749 5747 5745 5743 5740 5738 5735 5732 5730 5728 5725 5723 5721 5718 5715 5712 5709 5706 5702 5699 5696 5692 5689 5685 5682 5680 5678 5676 5674 5673 5672 5672 5671 5671 5671 5670 5670 5670 5669 5669 5668
5750 5750 5749 5748 5747 5745 5743 5741 5738 5736 5734 5731 5729 5726 5724 5722 5720 5717 5714 5711 5708 5705 5702 5698 5695 5691 5688 5686 5683 5680 5678 5676 5674 5673 5672 5672 5672 5671 5671 5671 5670 5670 5670 5669
5749 5748 5748 5747 5746 5744 5742 5740 5738 5736 5734 5732 5730 5727 5725 5723 5721 5719 5716 5713 5710 5707 5704 5701 5698 5695 5692 5689 5686 5683 5681 5679 5677 5675 5674 5673 5673 5673 5672 5672 5672 5671 5671 5670
5746 5746 5746 5745 5744 5743 5742 5740 5738 5736 5734 5732 5730 5728 5726 5724 5722 5720 5717 5715 5712 5710 5707 5704 5701 5698 5695 5692 5689 5686 5684 5682 5680 5678 5677 5676 5676 5675 5674 5674 5673 5673 5673 5672
5743 5743 5743 5743 5742 5741 5740 5739 5737 5736 5734 5732 5730 5728 5726 5724 5723 5721 5718 5716 5714 5712 5709 5707 5704 5701 5698 5695 5693 5690 5688 5686 5684 5682 5681 5679 5678 5678 5677 5676 5676 5675 5675 5674